| time (UTC) | temp F | wind direction | speed MPH | gust MPH | rain 1hr in | rain 24hr in | rain mn in | humidity % | barometer mb |
| 20260508104609 | 49 | 360 | 0.0 | 1.0 | 0.00 | 0.00 | 0.00 | 64 | 1008.6 |
| 20260508104056 | 49 | 59 | 0.0 | 0.0 | 0.00 | 0.00 | 0.00 | 64 | 1008.5 |
| 20260508103556 | 49 | 60 | 0.0 | 0.0 | 0.00 | 0.00 | 0.00 | 64 | 1008.5 |
| 20260508103056 | 49 | 62 | 0.0 | 0.0 | 0.00 | 0.00 | 0.00 | 63 | 1008.4 |
| 20260508102553 | 50 | 360 | 0.0 | 0.0 | 0.00 | 0.00 | 0.00 | 62 | 1008.3 |
| 20260508102052 | 50 | 59 | 0.0 | 0.0 | 0.00 | 0.00 | 0.00 | 61 | 1008.3 |
| 20260508101554 | 50 | 58 | 0.0 | 0.0 | 0.00 | 0.00 | 0.00 | 61 | 1008.2 |
| 20260508101052 | 50 | 57 | 0.0 | 0.0 | 0.00 | 0.00 | 0.00 | 62 | 1008.2 |
| 20260508100551 | 50 | 58 | 0.0 | 0.0 | 0.00 | 0.00 | 0.00 | 61 | 1008.2 |
| 20260508100051 | 50 | 58 | 0.0 | 0.0 | 0.00 | 0.00 | 0.00 | 61 | 1008.2 |
| 20260508095555 | 50 | 58 | 0.0 | 0.0 | 0.00 | 0.00 | 0.00 | 61 | 1008.2 |
| 20260508095050 | 50 | 58 | 0.0 | 0.0 | 0.00 | 0.00 | 0.00 | 61 | 1008.2 |
| 20260508094550 | 51 | 59 | 0.0 | 0.0 | 0.00 | 0.00 | 0.00 | 59 | 1008.2 |
| 20260508094047 | 51 | 360 | 0.0 | 0.0 | 0.00 | 0.00 | 0.00 | 58 | 1008.2 |
| 20260508093551 | 52 | 360 | 0.0 | 0.0 | 0.00 | 0.00 | 0.00 | 57 | 1008.2 |
| 20260508093049 | 52 | 360 | 0.0 | 0.0 | 0.00 | 0.00 | 0.00 | 57 | 1008.2 |
| 20260508092546 | 52 | 360 | 0.0 | 0.0 | 0.00 | 0.00 | 0.00 | 57 | 1008.0 |
| 20260508092046 | 51 | 58 | 0.0 | 0.0 | 0.00 | 0.00 | 0.00 | 57 | 1008.1 |
| 20260508091559 | 51 | 360 | 0.0 | 0.0 | 0.00 | 0.00 | 0.00 | 57 | 1008.0 |
| 20260508091044 | 52 | 57 | 0.0 | 0.0 | 0.00 | 0.00 | 0.00 | 56 | 1008.0 |
| 20260508090544 | 52 | 57 | 0.0 | 0.0 | 0.00 | 0.00 | 0.00 | 56 | 1007.9 |
| 20260508090044 | 53 | 57 | 0.0 | 0.0 | 0.00 | 0.00 | 0.00 | 55 | 1008.0 |
| 20260508085543 | 52 | 360 | 0.0 | 0.0 | 0.00 | 0.00 | 0.00 | 55 | 1008.0 |
| 20260508085046 | 52 | 360 | 0.0 | 0.0 | 0.00 | 0.00 | 0.00 | 55 | 1008.0 |
| 20260508084541 | 52 | 57 | 0.0 | 0.0 | 0.00 | 0.00 | 0.00 | 55 | 1008.0 |
| 20260508084041 | 52 | 360 | 0.0 | 0.0 | 0.00 | 0.00 | 0.00 | 54 | 1008.2 |
| 20260508083540 | 53 | 57 | 0.0 | 0.0 | 0.00 | 0.00 | 0.00 | 53 | 1008.1 |
| 20260508083048 | 54 | 60 | 0.0 | 2.0 | 0.00 | 0.00 | 0.00 | 52 | 1008.1 |
| 20260508082538 | 54 | 360 | 0.0 | 2.0 | 0.00 | 0.00 | 0.00 | 50 | 1008.2 |
| 20260508082038 | 55 | 304 | 0.0 | 0.0 | 0.00 | 0.00 | 0.00 | 48 | 1008.1 |
| 20260508081538 | 55 | 304 | 0.0 | 0.0 | 0.00 | 0.00 | 0.00 | 48 | 1008.2 |
| 20260508081038 | 55 | 360 | 0.0 | 0.0 | 0.00 | 0.00 | 0.00 | 49 | 1008.1 |
| 20260508080539 | 56 | 304 | 0.0 | 0.0 | 0.00 | 0.00 | 0.00 | 48 | 1008.1 |
| 20260508080059 | 56 | 303 | 0.0 | 0.0 | 0.00 | 0.00 | 0.00 | 48 | 1008.0 |
| 20260508075537 | 56 | 304 | 0.0 | 0.0 | 0.00 | 0.00 | 0.00 | 49 | 1008.1 |
| 20260508075037 | 55 | 303 | 0.0 | 0.0 | 0.00 | 0.00 | 0.00 | 51 | 1008.1 |
| 20260508074537 | 54 | 304 | 0.0 | 0.0 | 0.00 | 0.00 | 0.00 | 53 | 1008.1 |
| 20260508074035 | 54 | 304 | 0.0 | 0.0 | 0.00 | 0.00 | 0.00 | 53 | 1008.1 |
| 20260508073535 | 54 | 304 | 0.0 | 0.0 | 0.00 | 0.00 | 0.00 | 52 | 1008.1 |
| 20260508073040 | 54 | 304 | 0.0 | 0.0 | 0.00 | 0.00 | 0.00 | 52 | 1008.1 |
| 20260508072534 | 54 | 304 | 0.0 | 0.0 | 0.00 | 0.00 | 0.00 | 52 | 1008.0 |
| 20260508072034 | 54 | 304 | 0.0 | 0.0 | 0.00 | 0.00 | 0.00 | 52 | 1008.0 |
| 20260508071533 | 54 | 304 | 0.0 | 0.0 | 0.00 | 0.00 | 0.00 | 52 | 1007.8 |
| 20260508071031 | 55 | 304 | 0.0 | 0.0 | 0.00 | 0.00 | 0.00 | 50 | 1008.0 |
| 20260508070530 | 55 | 304 | 0.0 | 0.0 | 0.00 | 0.00 | 0.00 | 49 | 1007.8 |
| 20260508070029 | 56 | 295 | 0.0 | 0.0 | 0.00 | 0.00 | 0.00 | 47 | 1007.8 |
| 20260508065530 | 57 | 294 | 0.0 | 0.0 | 0.00 | 0.00 | 0.00 | 46 | 1007.8 |
| 20260508065028 | 58 | 294 | 0.0 | 0.0 | 0.00 | 0.00 | 0.00 | 45 | 1007.7 |
| 20260508064539 | 60 | 294 | 0.0 | 0.0 | 0.00 | 0.00 | 0.00 | 43 | 1007.7 |
| 20260508064026 | 60 | 294 | 0.0 | 0.0 | 0.00 | 0.00 | 0.00 | 40 | 1007.7 |
| 20260508063526 | 60 | 294 | 0.0 | 0.0 | 0.00 | 0.00 | 0.00 | 41 | 1007.7 |
| 20260508063028 | 59 | 294 | 0.0 | 0.0 | 0.00 | 0.00 | 0.00 | 43 | 1007.7 |
| 20260508062525 | 59 | 294 | 0.0 | 0.0 | 0.00 | 0.00 | 0.00 | 42 | 1007.8 |
| 20260508062025 | 57 | 294 | 0.0 | 0.0 | 0.00 | 0.00 | 0.00 | 45 | 1007.8 |
| 20260508061529 | 58 | 294 | 0.0 | 0.0 | 0.00 | 0.00 | 0.00 | 44 | 1007.7 |
| 20260508061022 | 58 | 294 | 0.0 | 0.0 | 0.00 | 0.00 | 0.00 | 44 | 1007.8 |
| 20260508060521 | 59 | 295 | 0.0 | 0.0 | 0.00 | 0.00 | 0.00 | 42 | 1007.7 |
| 20260508060019 | 61 | 5 | 0.0 | 0.0 | 0.00 | 0.00 | 0.00 | 39 | 1007.7 |
| 20260508055518 | 61 | 10 | 0.0 | 0.0 | 0.00 | 0.00 | 0.00 | 39 | 1007.7 |
| 20260508055018 | 61 | 10 | 0.0 | 0.0 | 0.00 | 0.00 | 0.00 | 39 | 1007.5 |
| 20260508054532 | 60 | 10 | 0.0 | 0.0 | 0.00 | 0.00 | 0.00 | 43 | 1007.5 |
| 20260508054018 | 59 | 10 | 0.0 | 0.0 | 0.00 | 0.00 | 0.00 | 44 | 1007.5 |
| 20260508053518 | 59 | 10 | 0.0 | 0.0 | 0.00 | 0.00 | 0.00 | 45 | 1007.6 |
| 20260508053019 | 59 | 10 | 0.0 | 0.0 | 0.00 | 0.00 | 0.00 | 46 | 1007.5 |
| 20260508052518 | 59 | 10 | 0.0 | 0.0 | 0.00 | 0.00 | 0.00 | 45 | 1007.4 |
| 20260508052017 | 59 | 21 | 0.0 | 0.0 | 0.00 | 0.00 | 0.00 | 45 | 1007.4 |
| 20260508051516 | 60 | 21 | 0.0 | 2.0 | 0.00 | 0.00 | 0.00 | 44 | 1007.4 |
| 20260508051018 | 61 | 19 | 0.0 | 1.0 | 0.00 | 0.00 | 0.00 | 41 | 1007.5 |
| 20260508050516 | 62 | 18 | 0.0 | 0.0 | 0.00 | 0.00 | 0.00 | 40 | 1007.3 |
| 20260508050019 | 62 | 18 | 0.0 | 0.0 | 0.00 | 0.00 | 0.00 | 40 | 1007.3 |
| 20260508045515 | 61 | 18 | 0.0 | 5.0 | 0.00 | 0.00 | 0.00 | 42 | 1007.4 |
| 20260508045015 | 60 | 18 | 0.0 | 6.0 | 0.00 | 0.00 | 0.00 | 43 | 1007.4 |
| 20260508044515 | 61 | 58 | 0.0 | 1.0 | 0.00 | 0.00 | 0.00 | 42 | 1007.5 |
| 20260508044015 | 61 | 67 | 0.0 | 2.0 | 0.00 | 0.00 | 0.00 | 43 | 1007.3 |
| 20260508043514 | 61 | 67 | 0.0 | 5.0 | 0.00 | 0.00 | 0.00 | 42 | 1007.5 |
| 20260508043014 | 62 | 58 | 0.0 | 6.0 | 0.00 | 0.00 | 0.00 | 40 | 1007.4 |
| 20260508042515 | 63 | 56 | 1.0 | 5.0 | 0.00 | 0.00 | 0.00 | 38 | 1007.3 |
| 20260508042014 | 63 | 197 | 0.0 | 1.0 | 0.00 | 0.00 | 0.00 | 36 | 1007.1 |
| 20260508041515 | 64 | 197 | 0.0 | 1.0 | 0.00 | 0.00 | 0.00 | 35 | 1007.0 |
| 20260508041014 | 65 | 197 | 0.0 | 1.0 | 0.00 | 0.00 | 0.00 | 34 | 1007.0 |
| 20260508040513 | 65 | 197 | 0.0 | 1.0 | 0.00 | 0.00 | 0.00 | 33 | 1006.9 |
| 20260508040033 | 66 | 202 | 0.0 | 1.0 | 0.00 | 0.00 | 0.00 | 32 | 1006.9 |
| 20260508035515 | 66 | 185 | 0.0 | 1.0 | 0.00 | 0.00 | 0.00 | 32 | 1006.8 |
| 20260508035019 | 66 | 177 | 0.0 | 2.0 | 0.00 | 0.00 | 0.00 | 32 | 1006.8 |
| 20260508034513 | 66 | 177 | 0.0 | 2.0 | 0.00 | 0.00 | 0.00 | 32 | 1006.8 |
| 20260508034011 | 66 | 163 | 0.0 | 2.0 | 0.00 | 0.00 | 0.00 | 32 | 1006.8 |
| 20260508033511 | 66 | 188 | 0.0 | 1.0 | 0.00 | 0.00 | 0.00 | 33 | 1006.8 |
| 20260508033011 | 66 | 188 | 0.0 | 1.0 | 0.00 | 0.00 | 0.00 | 33 | 1006.7 |
| 20260508032510 | 66 | 188 | 0.0 | 1.0 | 0.00 | 0.00 | 0.00 | 33 | 1006.8 |
| 20260508032010 | 66 | 188 | 0.0 | 1.0 | 0.00 | 0.00 | 0.00 | 33 | 1006.8 |
| 20260508031514 | 66 | 188 | 0.0 | 1.0 | 0.00 | 0.00 | 0.00 | 33 | 1007.0 |
| 20260508031009 | 67 | 360 | 0.0 | 1.0 | 0.00 | 0.00 | 0.00 | 33 | 1006.9 |
| 20260508030509 | 68 | 11 | 0.0 | 1.0 | 0.00 | 0.00 | 0.00 | 32 | 1006.8 |
| 20260508030010 | 68 | 11 | 0.0 | 0.0 | 0.00 | 0.00 | 0.00 | 32 | 1006.7 |
| 20260508025509 | 68 | 11 | 0.0 | 0.0 | 0.00 | 0.00 | 0.00 | 31 | 1006.8 |
| 20260508025011 | 68 | 5 | 0.0 | 0.0 | 0.00 | 0.00 | 0.00 | 31 | 1006.8 |
| 20260508024519 | 68 | 5 | 0.0 | 0.0 | 0.00 | 0.00 | 0.00 | 31 | 1006.8 |
| 20260508024009 | 68 | 5 | 0.0 | 0.0 | 0.00 | 0.00 | 0.00 | 30 | 1006.8 |
| 20260508023508 | 69 | 5 | 0.0 | 1.0 | 0.00 | 0.00 | 0.00 | 29 | 1006.6 |
| 20260508023010 | 70 | 5 | 0.0 | 3.0 | 0.00 | 0.00 | 0.00 | 29 | 1006.6 |
| 20260508022507 | 71 | 5 | 1.0 | 4.0 | 0.00 | 0.00 | 0.00 | 27 | 1006.7 |
| 20260508022008 | 72 | 355 | 2.0 | 4.0 | 0.00 | 0.00 | 0.00 | 26 | 1006.6 |
| 20260508021508 | 72 | 5 | 2.0 | 5.0 | 0.00 | 0.00 | 0.00 | 26 | 1006.7 |
| 20260508021007 | 72 | 345 | 2.0 | 5.0 | 0.00 | 0.00 | 0.00 | 25 | 1006.6 |
| 20260508020507 | 73 | 355 | 2.0 | 6.0 | 0.00 | 0.00 | 0.00 | 25 | 1006.6 |
| 20260508020007 | 73 | 318 | 4.0 | 6.0 | 0.00 | 0.00 | 0.00 | 25 | 1006.5 |
| 20260508015507 | 73 | 317 | 4.0 | 6.0 | 0.00 | 0.00 | 0.00 | 24 | 1006.6 |
| 20260508015006 | 73 | 313 | 3.0 | 6.0 | 0.00 | 0.00 | 0.00 | 24 | 1006.6 |
| 20260508014506 | 73 | 319 | 4.0 | 6.0 | 0.00 | 0.00 | 0.00 | 23 | 1006.6 |
| 20260508014007 | 73 | 313 | 4.0 | 6.0 | 0.00 | 0.00 | 0.00 | 23 | 1006.5 |
| 20260508013504 | 74 | 340 | 4.0 | 6.0 | 0.00 | 0.00 | 0.00 | 23 | 1006.6 |
| 20260508013005 | 74 | 316 | 4.0 | 8.0 | 0.00 | 0.00 | 0.00 | 23 | 1006.7 |
| 20260508012506 | 74 | 306 | 3.0 | 8.0 | 0.00 | 0.00 | 0.00 | 24 | 1006.8 |
| 20260508012004 | 74 | 309 | 3.0 | 8.0 | 0.00 | 0.00 | 0.00 | 23 | 1006.9 |
| 20260508011503 | 74 | 322 | 4.0 | 8.0 | 0.00 | 0.00 | 0.00 | 23 | 1006.8 |
| 20260508011004 | 74 | 301 | 4.0 | 8.0 | 0.00 | 0.00 | 0.00 | 23 | 1007.0 |
| 20260508010503 | 74 | 313 | 4.0 | 8.0 | 0.00 | 0.00 | 0.00 | 24 | 1006.9 |
| 20260508010003 | 74 | 5 | 2.0 | 5.0 | 0.00 | 0.00 | 0.00 | 24 | 1006.9 |
| 20260508005503 | 74 | 315 | 2.0 | 4.0 | 0.00 | 0.00 | 0.00 | 23 | 1006.9 |
| 20260508005002 | 74 | 300 | 1.0 | 6.0 | 0.00 | 0.00 | 0.00 | 24 | 1006.8 |
| 20260508004501 | 74 | 298 | 2.0 | 8.0 | 0.00 | 0.00 | 0.00 | 24 | 1006.9 |
| 20260508004101 | 74 | 297 | 4.0 | 8.0 | 0.00 | 0.00 | 0.00 | 23 | 1007.1 |
| 20260508003603 | 74 | 286 | 6.0 | 8.0 | 0.00 | 0.00 | 0.00 | 24 | 1007.2 |
| 20260508003100 | 74 | 319 | 4.0 | 6.0 | 0.00 | 0.00 | 0.00 | 24 | 1007.2 |
| 20260508002559 | 74 | 318 | 2.0 | 6.0 | 0.00 | 0.00 | 0.00 | 24 | 1007.3 |
| 20260508002059 | 74 | 307 | 4.0 | 8.0 | 0.00 | 0.00 | 0.00 | 24 | 1007.3 |
| 20260508001600 | 74 | 315 | 5.0 | 8.0 | 0.00 | 0.00 | 0.00 | 23 | 1007.5 |
| 20260508001103 | 74 | 321 | 2.0 | 6.0 | 0.00 | 0.00 | 0.00 | 24 | 1007.4 |
| 20260508000602 | 75 | 284 | 2.0 | 8.0 | 0.00 | 0.00 | 0.00 | 23 | 1007.5 |
| 20260507235558 | 75 | 314 | 5.0 | 8.0 | 0.00 | 0.00 | 0.00 | 23 | 1007.5 |
| 20260507235057 | 75 | 235 | 3.0 | 12.0 | 0.00 | 0.00 | 0.00 | 22 | 1007.5 |
| 20260507234602 | 75 | 319 | 4.0 | 12.0 | 0.00 | 0.00 | 0.00 | 23 | 1007.5 |
| 20260507234058 | 75 | 300 | 1.0 | 8.0 | 0.00 | 0.00 | 0.00 | 23 | 1007.7 |
| 20260507233559 | 75 | 287 | 3.0 | 12.0 | 0.00 | 0.00 | 0.00 | 23 | 1007.7 |
| 20260507233115 | 75 | 328 | 5.0 | 12.0 | 0.00 | 0.00 | 0.00 | 23 | 1007.7 |
| 20260507232556 | 76 | 331 | 6.0 | 11.0 | 0.00 | 0.00 | 0.00 | 22 | 1007.7 |
| 20260507232057 | 76 | 322 | 3.0 | 13.0 | 0.00 | 0.00 | 0.00 | 21 | 1007.8 |
| 20260507231554 | 76 | 322 | 4.0 | 11.0 | 0.00 | 0.00 | 0.00 | 22 | 1007.9 |
| 20260507231053 | 77 | 313 | 7.0 | 11.0 | 0.00 | 0.00 | 0.00 | 22 | 1008.0 |
| 20260507230552 | 76 | 307 | 5.0 | 11.0 | 0.00 | 0.00 | 0.00 | 23 | 1008.1 |
| 20260507230052 | 76 | 326 | 5.0 | 10.0 | 0.00 | 0.00 | 0.00 | 22 | 1008.2 |
| 20260507225551 | 75 | 355 | 5.0 | 13.0 | 0.00 | 0.00 | 0.00 | 22 | 1008.5 |
| 20260507225050 | 75 | 346 | 2.0 | 13.0 | 0.00 | 0.00 | 0.00 | 23 | 1008.5 |
| 20260507224550 | 75 | 332 | 6.0 | 11.0 | 0.00 | 0.00 | 0.00 | 22 | 1008.5 |
| 20260507224048 | 75 | 342 | 5.0 | 11.0 | 0.00 | 0.00 | 0.00 | 23 | 1008.7 |
| 20260507223551 | 75 | 49 | 6.0 | 12.0 | 0.00 | 0.00 | 0.00 | 22 | 1008.7 |
| 20260507223057 | 75 | 309 | 8.0 | 12.0 | 0.00 | 0.00 | 0.00 | 22 | 1008.9 |
| 20260507222546 | 75 | 10 | 5.0 | 12.0 | 0.00 | 0.00 | 0.00 | 22 | 1008.9 |
| 20260507222046 | 75 | 300 | 5.0 | 14.0 | 0.00 | 0.00 | 0.00 | 23 | 1009.0 |
| 20260507221546 | 75 | 334 | 9.0 | 14.0 | 0.00 | 0.00 | 0.00 | 23 | 1009.0 |
| 20260507221047 | 75 | 311 | 9.0 | 16.0 | 0.00 | 0.00 | 0.00 | 23 | 1009.1 |
| 20260507220544 | 75 | 329 | 9.0 | 16.0 | 0.00 | 0.00 | 0.00 | 23 | 1009.2 |
| 20260507220044 | 75 | 16 | 6.0 | 13.0 | 0.00 | 0.00 | 0.00 | 23 | 1009.3 |
| 20260507215544 | 75 | 291 | 5.0 | 13.0 | 0.00 | 0.00 | 0.00 | 23 | 1009.3 |
| 20260507215042 | 75 | 335 | 4.0 | 14.0 | 0.00 | 0.00 | 0.00 | 23 | 1009.4 |
| 20260507214544 | 75 | 336 | 9.0 | 14.0 | 0.00 | 0.00 | 0.00 | 22 | 1009.5 |
| 20260507214045 | 75 | 342 | 5.0 | 15.0 | 0.00 | 0.00 | 0.00 | 23 | 1009.5 |
| 20260507213544 | 74 | 331 | 8.0 | 15.0 | 0.00 | 0.00 | 0.00 | 23 | 1009.7 |
| 20260507213043 | 75 | 9 | 8.0 | 13.0 | 0.00 | 0.00 | 0.00 | 22 | 1009.7 |
| 20260507212544 | 75 | 336 | 7.0 | 15.0 | 0.00 | 0.00 | 0.00 | 22 | 1009.9 |
| 20260507212041 | 75 | 322 | 9.0 | 16.0 | 0.00 | 0.00 | 0.00 | 22 | 1009.9 |
| 20260507211548 | 75 | 315 | 9.0 | 16.0 | 0.00 | 0.00 | 0.00 | 22 | 1010.0 |
| 20260507211038 | 75 | 321 | 7.0 | 16.0 | 0.00 | 0.00 | 0.00 | 22 | 1010.1 |
| 20260507210541 | 75 | 341 | 11.0 | 16.0 | 0.00 | 0.00 | 0.00 | 21 | 1010.1 |
| 20260507210057 | 76 | 327 | 10.0 | 15.0 | 0.00 | 0.00 | 0.00 | 21 | 1010.3 |
| 20260507205539 | 76 | 315 | 2.0 | 11.0 | 0.00 | 0.00 | 0.00 | 23 | 1010.3 |
| 20260507205035 | 76 | 250 | 5.0 | 10.0 | 0.00 | 0.00 | 0.00 | 23 | 1010.4 |
| 20260507204542 | 74 | 246 | 2.0 | 9.0 | 0.00 | 0.00 | 0.00 | 23 | 1010.5 |
| 20260507204033 | 75 | 246 | 1.0 | 5.0 | 0.00 | 0.00 | 0.00 | 21 | 1010.4 |
| 20260507203532 | 74 | 259 | 1.0 | 6.0 | 0.00 | 0.00 | 0.00 | 21 | 1010.7 |
| 20260507203032 | 74 | 280 | 0.0 | 7.0 | 0.00 | 0.00 | 0.00 | 23 | 1010.7 |
| 20260507202531 | 73 | 264 | 3.0 | 7.0 | 0.00 | 0.00 | 0.00 | 24 | 1010.9 |
| 20260507202031 | 73 | 163 | 1.0 | 5.0 | 0.00 | 0.00 | 0.00 | 22 | 1010.9 |
| 20260507201530 | 73 | 203 | 0.0 | 6.0 | 0.00 | 0.00 | 0.00 | 25 | 1010.9 |
| 20260507201030 | 73 | 244 | 3.0 | 6.0 | 0.00 | 0.00 | 0.00 | 23 | 1010.9 |
| 20260507200529 | 73 | 120 | 0.0 | 4.0 | 0.00 | 0.00 | 0.00 | 23 | 1011.0 |
| 20260507200031 | 73 | 117 | 2.0 | 4.0 | 0.00 | 0.00 | 0.00 | 24 | 1011.0 |
| 20260507195529 | 73 | 167 | 0.0 | 2.0 | 0.00 | 0.00 | 0.00 | 23 | 1011.1 |
| 20260507195027 | 73 | 165 | 0.0 | 6.0 | 0.00 | 0.00 | 0.00 | 22 | 1011.2 |
| 20260507194534 | 73 | 253 | 1.0 | 6.0 | 0.00 | 0.00 | 0.00 | 23 | 1011.2 |
| 20260507194024 | 72 | 164 | 0.0 | 2.0 | 0.00 | 0.00 | 0.00 | 23 | 1011.3 |
| 20260507193524 | 72 | 163 | 0.0 | 2.0 | 0.00 | 0.00 | 0.00 | 23 | 1011.3 |
| 20260507193024 | 72 | 159 | 0.0 | 6.0 | 0.00 | 0.00 | 0.00 | 23 | 1011.4 |
| 20260507192522 | 72 | 161 | 0.0 | 9.0 | 0.00 | 0.00 | 0.00 | 24 | 1011.5 |
| 20260507192021 | 71 | 88 | 1.0 | 6.0 | 0.00 | 0.00 | 0.00 | 25 | 1011.5 |
| 20260507191521 | 70 | 153 | 1.0 | 5.0 | 0.00 | 0.00 | 0.00 | 23 | 1011.6 |
| 20260507191022 | 70 | 187 | 1.0 | 3.0 | 0.00 | 0.00 | 0.00 | 22 | 1011.7 |
| 20260507190520 | 70 | 213 | 0.0 | 5.0 | 0.00 | 0.00 | 0.00 | 24 | 1011.8 |
| 20260507190027 | 70 | 156 | 1.0 | 6.0 | 0.00 | 0.00 | 0.00 | 23 | 1011.8 |
| 20260507185520 | 70 | 178 | 3.0 | 6.0 | 0.00 | 0.00 | 0.00 | 23 | 1011.9 |
| 20260507185017 | 69 | 157 | 3.0 | 9.0 | 0.00 | 0.00 | 0.00 | 23 | 1011.9 |
| 20260507184521 | 69 | 142 | 2.0 | 9.0 | 0.00 | 0.00 | 0.00 | 25 | 1011.9 |
| 20260507184017 | 68 | 138 | 3.0 | 8.0 | 0.00 | 0.00 | 0.00 | 24 | 1011.9 |
| 20260507183515 | 69 | 188 | 3.0 | 8.0 | 0.00 | 0.00 | 0.00 | 24 | 1012.0 |
| 20260507183018 | 69 | 167 | 3.0 | 7.0 | 0.00 | 0.00 | 0.00 | 24 | 1012.1 |
| 20260507182517 | 68 | 151 | 4.0 | 7.0 | 0.00 | 0.00 | 0.00 | 23 | 1012.1 |
| 20260507182013 | 69 | 161 | 3.0 | 7.0 | 0.00 | 0.00 | 0.00 | 23 | 1012.2 |
| 20260507181513 | 67 | 145 | 2.0 | 7.0 | 0.00 | 0.00 | 0.00 | 25 | 1012.1 |
| 20260507181012 | 66 | 168 | 4.0 | 9.0 | 0.00 | 0.00 | 0.00 | 24 | 1012.2 |
| 20260507180512 | 66 | 202 | 4.0 | 9.0 | 0.00 | 0.00 | 0.00 | 24 | 1012.2 |
| 20260507180017 | 66 | 152 | 3.0 | 9.0 | 0.00 | 0.00 | 0.00 | 24 | 1012.3 |
| 20260507175510 | 66 | 136 | 4.0 | 11.0 | 0.00 | 0.00 | 0.00 | 23 | 1012.3 |
| 20260507175009 | 66 | 170 | 4.0 | 14.0 | 0.00 | 0.00 | 0.00 | 23 | 1012.3 |
| 20260507174512 | 66 | 139 | 4.0 | 9.0 | 0.00 | 0.00 | 0.00 | 23 | 1012.4 |
| 20260507174010 | 66 | 128 | 4.0 | 14.0 | 0.00 | 0.00 | 0.00 | 23 | 1012.4 |
| 20260507173510 | 65 | 192 | 4.0 | 14.0 | 0.00 | 0.00 | 0.00 | 23 | 1012.5 |
| 20260507173017 | 65 | 176 | 5.0 | 9.0 | 0.00 | 0.00 | 0.00 | 23 | 1012.6 |
| 20260507172506 | 65 | 159 | 6.0 | 9.0 | 0.00 | 0.00 | 0.00 | 23 | 1012.6 |
| 20260507172004 | 64 | 167 | 4.0 | 9.0 | 0.00 | 0.00 | 0.00 | 23 | 1012.7 |
| 20260507171503 | 64 | 173 | 6.0 | 9.0 | 0.00 | 0.00 | 0.00 | 23 | 1012.7 |
| 20260507171002 | 64 | 175 | 4.0 | 8.0 | 0.00 | 0.00 | 0.00 | 23 | 1012.8 |
| 20260507170501 | 63 | 155 | 5.0 | 10.0 | 0.00 | 0.00 | 0.00 | 24 | 1012.8 |
| 20260507170101 | 63 | 177 | 4.0 | 11.0 | 0.00 | 0.00 | 0.00 | 24 | 1012.8 |
| 20260507165601 | 63 | 233 | 2.0 | 11.0 | 0.00 | 0.00 | 0.00 | 25 | 1012.9 |
| 20260507165100 | 63 | 162 | 3.0 | 11.0 | 0.00 | 0.00 | 0.00 | 24 | 1012.9 |
| 20260507164631 | 63 | 167 | 4.0 | 14.0 | 0.00 | 0.00 | 0.00 | 24 | 1012.9 |
| 20260507164100 | 63 | 162 | 5.0 | 14.0 | 0.00 | 0.00 | 0.00 | 24 | 1013.0 |
| 20260507163559 | 63 | 179 | 5.0 | 14.0 | 0.00 | 0.00 | 0.00 | 24 | 1013.1 |
| 20260507163100 | 63 | 161 | 4.0 | 14.0 | 0.00 | 0.00 | 0.00 | 24 | 1013.0 |
| 20260507162558 | 63 | 190 | 5.0 | 12.0 | 0.00 | 0.00 | 0.00 | 24 | 1013.1 |
| 20260507162056 | 62 | 173 | 5.0 | 10.0 | 0.00 | 0.00 | 0.00 | 25 | 1013.1 |
| 20260507161600 | 61 | 172 | 5.0 | 10.0 | 0.00 | 0.00 | 0.00 | 25 | 1013.1 |
| 20260507161059 | 61 | 183 | 5.0 | 11.0 | 0.00 | 0.00 | 0.00 | 25 | 1013.1 |
| 20260507160555 | 61 | 170 | 6.0 | 10.0 | 0.00 | 0.00 | 0.00 | 25 | 1013.1 |
| 20260507160053 | 61 | 179 | 3.0 | 9.0 | 0.00 | 0.00 | 0.00 | 27 | 1013.1 |
| 20260507155553 | 61 | 166 | 4.0 | 9.0 | 0.00 | 0.00 | 0.00 | 26 | 1013.0 |
| 20260507155052 | 61 | 178 | 3.0 | 11.0 | 0.00 | 0.00 | 0.00 | 26 | 1013.0 |
| 20260507154557 | 61 | 178 | 6.0 | 11.0 | 0.00 | 0.00 | 0.00 | 26 | 1012.9 |
| 20260507154051 | 61 | 176 | 4.0 | 8.0 | 0.00 | 0.00 | 0.00 | 26 | 1012.9 |
| 20260507153550 | 61 | 194 | 5.0 | 9.0 | 0.00 | 0.00 | 0.00 | 27 | 1012.9 |
| 20260507153049 | 60 | 168 | 6.0 | 16.0 | 0.00 | 0.00 | 0.00 | 27 | 1013.0 |
| 20260507152548 | 60 | 175 | 7.0 | 16.0 | 0.00 | 0.00 | 0.00 | 27 | 1013.0 |
| 20260507152048 | 60 | 169 | 6.0 | 13.0 | 0.00 | 0.00 | 0.00 | 28 | 1013.1 |
| 20260507151548 | 59 | 166 | 5.0 | 9.0 | 0.00 | 0.00 | 0.00 | 28 | 1013.0 |
| 20260507151049 | 59 | 178 | 4.0 | 15.0 | 0.00 | 0.00 | 0.00 | 29 | 1013.1 |
| 20260507150545 | 59 | 162 | 6.0 | 15.0 | 0.00 | 0.00 | 0.00 | 29 | 1013.1 |
| 20260507150047 | 58 | 180 | 6.0 | 9.0 | 0.00 | 0.00 | 0.00 | 30 | 1013.1 |
| 20260507145543 | 58 | 158 | 5.0 | 14.0 | 0.00 | 0.00 | 0.00 | 31 | 1013.2 |
| 20260507145041 | 57 | 175 | 7.0 | 14.0 | 0.00 | 0.00 | 0.00 | 32 | 1013.2 |
| 20260507144540 | 57 | 170 | 5.0 | 12.0 | 0.00 | 0.00 | 0.00 | 33 | 1013.2 |
| 20260507144038 | 57 | 185 | 5.0 | 12.0 | 0.00 | 0.00 | 0.00 | 33 | 1013.2 |
| 20260507143539 | 57 | 178 | 6.0 | 12.0 | 0.00 | 0.00 | 0.00 | 33 | 1013.2 |
| 20260507143041 | 57 | 148 | 4.0 | 10.0 | 0.00 | 0.00 | 0.00 | 33 | 1013.0 |
| 20260507142538 | 57 | 162 | 4.0 | 11.0 | 0.00 | 0.00 | 0.00 | 32 | 1013.1 |
| 20260507142037 | 57 | 176 | 6.0 | 11.0 | 0.00 | 0.00 | 0.00 | 32 | 1012.9 |
| 20260507141537 | 57 | 184 | 6.0 | 10.0 | 0.00 | 0.00 | 0.00 | 34 | 1013.0 |
| 20260507141038 | 57 | 171 | 4.0 | 9.0 | 0.00 | 0.00 | 0.00 | 36 | 1013.1 |
| 20260507140534 | 56 | 182 | 6.0 | 9.0 | 0.00 | 0.00 | 0.00 | 36 | 1013.0 |
| 20260507140039 | 56 | 180 | 6.0 | 10.0 | 0.00 | 0.00 | 0.00 | 36 | 1013.2 |
| 20260507135535 | 56 | 165 | 5.0 | 11.0 | 0.00 | 0.00 | 0.00 | 36 | 1012.9 |
| 20260507135031 | 56 | 166 | 4.0 | 11.0 | 0.00 | 0.00 | 0.00 | 37 | 1013.0 |
| 20260507134531 | 56 | 182 | 4.0 | 10.0 | 0.00 | 0.00 | 0.00 | 35 | 1013.1 |
| 20260507134029 | 56 | 165 | 4.0 | 10.0 | 0.00 | 0.00 | 0.00 | 35 | 1013.0 |
| 20260507133531 | 56 | 167 | 4.0 | 9.0 | 0.00 | 0.00 | 0.00 | 34 | 1013.0 |
| 20260507133030 | 56 | 183 | 5.0 | 10.0 | 0.00 | 0.00 | 0.00 | 34 | 1013.1 |
| 20260507132528 | 56 | 179 | 3.0 | 10.0 | 0.00 | 0.00 | 0.00 | 32 | 1013.0 |
| 20260507132027 | 56 | 178 | 4.0 | 10.0 | 0.00 | 0.00 | 0.00 | 31 | 1013.1 |
| 20260507131527 | 56 | 360 | 3.0 | 10.0 | 0.00 | 0.00 | 0.00 | 31 | 1013.2 |
| 20260507131027 | 55 | 170 | 4.0 | 15.0 | 0.00 | 0.00 | 0.00 | 31 | 1013.1 |
| 20260507130526 | 55 | 173 | 4.0 | 15.0 | 0.00 | 0.00 | 0.00 | 31 | 1013.1 |
| 20260507130028 | 55 | 164 | 4.0 | 9.0 | 0.00 | 0.00 | 0.00 | 31 | 1013.1 |
| 20260507125527 | 55 | 174 | 4.0 | 9.0 | 0.00 | 0.00 | 0.00 | 31 | 1013.1 |
| 20260507125024 | 55 | 156 | 3.0 | 7.0 | 0.00 | 0.00 | 0.00 | 32 | 1013.3 |
| 20260507124533 | 55 | 152 | 4.0 | 6.0 | 0.00 | 0.00 | 0.00 | 32 | 1013.2 |
| 20260507124027 | 55 | 178 | 3.0 | 7.0 | 0.00 | 0.00 | 0.00 | 33 | 1013.2 |
| 20260507123522 | 55 | 165 | 3.0 | 8.0 | 0.00 | 0.00 | 0.00 | 33 | 1013.2 |
| 20260507123023 | 55 | 164 | 3.0 | 8.0 | 0.00 | 0.00 | 0.00 | 33 | 1013.2 |
| 20260507122522 | 54 | 153 | 3.0 | 9.0 | 0.00 | 0.00 | 0.00 | 34 | 1013.2 |
| 20260507122021 | 54 | 171 | 5.0 | 9.0 | 0.00 | 0.00 | 0.00 | 34 | 1013.1 |
| 20260507121520 | 54 | 169 | 4.0 | 6.0 | 0.00 | 0.00 | 0.00 | 34 | 1013.3 |
| 20260507121020 | 54 | 177 | 3.0 | 10.0 | 0.00 | 0.00 | 0.00 | 35 | 1013.3 |
| 20260507120523 | 54 | 163 | 4.0 | 10.0 | 0.00 | 0.00 | 0.00 | 34 | 1013.2 |
| 20260507120020 | 54 | 184 | 4.0 | 12.0 | 0.00 | 0.00 | 0.00 | 33 | 1013.2 |
| 20260507115521 | 55 | 168 | 4.0 | 12.0 | 0.00 | 0.00 | 0.00 | 33 | 1013.2 |
| 20260507115022 | 55 | 164 | 4.0 | 6.0 | 0.00 | 0.00 | 0.00 | 33 | 1013.2 |
| 20260507114518 | 55 | 175 | 3.0 | 8.0 | 0.00 | 0.00 | 0.00 | 33 | 1013.2 |
| 20260507114021 | 55 | 165 | 4.0 | 9.0 | 0.00 | 0.00 | 0.00 | 33 | 1013.1 |
| 20260507113518 | 55 | 148 | 3.0 | 9.0 | 0.00 | 0.00 | 0.00 | 33 | 1013.2 |
| 20260507113036 | 55 | 179 | 3.0 | 10.0 | 0.00 | 0.00 | 0.00 | 32 | 1013.3 |
| 20260507112517 | 56 | 161 | 4.0 | 7.0 | 0.00 | 0.00 | 0.00 | 31 | 1013.3 |
| 20260507112018 | 56 | 166 | 4.0 | 6.0 | 0.00 | 0.00 | 0.00 | 31 | 1013.4 |
| 20260507111516 | 56 | 170 | 3.0 | 6.0 | 0.00 | 0.00 | 0.00 | 31 | 1013.6 |
| 20260507111014 | 55 | 173 | 4.0 | 6.0 | 0.00 | 0.00 | 0.00 | 32 | 1013.5 |
| 20260507110514 | 55 | 175 | 3.0 | 6.0 | 0.00 | 0.00 | 0.00 | 32 | 1013.6 |
| 20260507110016 | 55 | 163 | 3.0 | 6.0 | 0.00 | 0.00 | 0.00 | 33 | 1013.6 |
| 20260507105514 | 55 | 157 | 3.0 | 6.0 | 0.00 | 0.00 | 0.00 | 33 | 1013.6 |